This is the latest recevied weather packets stored in our database for station/object VA7NIC-10. If no packets are shown the sender has not sent any weather packets the latest 10 day(s).
| Time | Temp. | Humidity | Pressure | Rain* | Wind** | Luminosity | Snow |
|---|---|---|---|---|---|---|---|
| 1777941422 | 27.22° C | 33% | 1007 hPa | 0 mm | - | - | - |
| 1777940522 | 27.78° C | 33% | 1007 hPa | 0 mm | - | - | - |
| 1777939623 | 27.78° C | 32% | 1007 hPa | 0 mm | - | - | - |
| 1777938721 | 27.78° C | 34% | 1007 hPa | 0 mm | - | - | - |
| 1777937821 | 28.33° C | 34% | 1007 hPa | 0 mm | - | - | - |
| 1777936921 | 28.33° C | 33% | 1007 hPa | 0 mm | - | - | - |
| 1777936021 | 28.33° C | 32% | 1007.2 hPa | 0 mm | - | - | - |
| 1777935121 | 28.33° C | 32% | 1007.3 hPa | 0 mm | - | - | - |
| 1777934221 | 28.33° C | 32% | 1007.2 hPa | 0 mm | - | - | - |
| 1777933321 | 28.89° C | 31% | 1007.2 hPa | 0 mm | - | - | - |
| 1777932422 | 28.89° C | 32% | 1007.3 hPa | 0 mm | - | - | - |
| 1777931522 | 28.33° C | 32% | 1007.4 hPa | 0 mm | - | - | - |
| 1777930622 | 28.33° C | 34% | 1007.5 hPa | 0 mm | - | - | - |
| 1777929722 | 28.33° C | 34% | 1007.6 hPa | 0 mm | - | - | - |
| 1777928822 | 27.78° C | 36% | 1007.6 hPa | 0 mm | - | - | - |
| 1777927922 | 27.78° C | 35% | 1007.8 hPa | 0 mm | - | - | - |
| 1777927022 | 27.78° C | 38% | 1008 hPa | 0 mm | - | - | - |
| 1777926121 | 27.22° C | 39% | 1008.2 hPa | 0 mm | - | - | - |
| 1777925222 | 26.67° C | 38% | 1008.3 hPa | 0 mm | - | - | - |
| 1777924321 | 26.11° C | 40% | 1008.3 hPa | 0 mm | - | - | - |
| 1777923421 | 25.56° C | 42% | 1008.5 hPa | 0 mm | - | - | - |
| 1777922521 | 25° C | 41% | 1008.6 hPa | 0 mm | - | - | - |
| 1777921621 | 24.44° C | 44% | 1008.7 hPa | 0 mm | - | - | - |
| 1777920721 | 24.44° C | 47% | 1008.8 hPa | 0 mm | - | - | - |
| 1777919821 | 23.89° C | 47% | 1008.8 hPa | 0 mm | - | - | - |
* Rain latest hour (hover to see other rain measurements)
** Current wind speed in m/s (hover to see current wind gust speed)